Prescott, AZ

6:13 AM MST on December 18, 2017 (GMT -0700)
Love

Weather History for KPRC - May, 2014

Change the Weather History Date:

Sunday, May 4, 2014

  Actual Average Record
Temperature  
Mean Temperature 65 °F 58 °F  
Max Temperature 83 °F 73 °F 86 °F (1997)
Min Temperature 47 °F 43 °F 31 °F (1965)
Degree Days  
Heating Degree Days 0    
Month to date heating degree days 10  
Since 1 July heating degree days 3683  
Cooling Degree Days 0    
Month to date cooling degree days 1  
Year to date cooling degree days 1  
Growing Degree Days 15 (Base 50)    
Moisture  
Dew Point 15 °F    
Average Humidity 15    
Maximum Humidity 31    
Minimum Humidity 7    
Precipitation  
Precipitation 0.00 in 0.02 in 0.65 in (1982)
Month to date precipitation 0.00 0.06  
Year to date precipitation 0.97 4.14  
Sea Level Pressure  
Sea Level Pressure 29.89 in    
Wind  
Wind Speed 12 mph (SSW)    
Max Wind Speed 26 mph    
Max Gust Speed 37 mph    
Visibility 10 miles    
Events      
T = Trace of Precipitation, MM = Missing Value Source: NWS Daily Summary

Daily Weather History Graph

Daily Weather History Graph

Search for Another Location

Airport or City:

Trip Planner

Search our weather history database for the weather conditions in past years. The results will help you decide how hot, cold, wet, or windy it might be!

Date:

Astronomy

May. 04, 2014 Rise Set
Actual Time 5:36 AM MST 7:17 PM MST
Civil Twilight 5:09 AM MST 7:44 PM MST
Nautical Twilight 4:36 AM MST 8:17 PM MST
Astronomical Twilight 4:02 AM MST 8:51 PM MST
Moon 10:04 AM MST (5/4) No Moon Set
Length of Visible Light 14h 35m
Length of Day
13h 40m
Waxing Crescent, 28% of the Moon is Illuminated
May 4
Waxing Crescent
May 6
First Quarter
May 14
Full
May 21
Last Quarter
May 28
New

Hourly Weather History & Observations

Time (MST) Temp. Dew Point Humidity Pressure Visibility Wind Dir Wind Speed Gust Speed Precip Events Conditions
12:53 AM 57.9 °F 17.1 °F 20% 29.88 in 10.0 mi SSW 9.2 mph - N/A   Clear
1:53 AM 59.0 °F 16.0 °F 19% 29.87 in 10.0 mi SSW 8.1 mph - N/A   Clear
2:53 AM 53.1 °F 18.0 °F 25% 29.88 in 10.0 mi SSW 6.9 mph - N/A   Clear
3:53 AM 50.0 °F 19.9 °F 31% 29.89 in 10.0 mi SSW 4.6 mph - N/A   Clear
4:53 AM 48.0 °F 19.0 °F 32% 29.90 in 10.0 mi South 5.8 mph - N/A   Clear
5:53 AM 48.9 °F 19.9 °F 32% 29.92 in 10.0 mi SSW 9.2 mph - N/A   Clear
6:53 AM 55.9 °F 19.9 °F 25% 29.92 in 10.0 mi South 8.1 mph - N/A   Clear
7:53 AM 66.0 °F 21.9 °F 19% 29.92 in 10.0 mi SSE 3.5 mph - N/A   Clear
8:53 AM 72.0 °F 12.0 °F 10% 29.92 in 10.0 mi SSW 11.5 mph - N/A   Clear
9:53 AM 75.9 °F 10.9 °F 8% 29.92 in 10.0 mi SSW 13.8 mph - N/A   Clear
10:53 AM 78.1 °F 15.1 °F 9% 29.91 in 10.0 mi SSW 13.8 mph 23.0 mph N/A   Clear
11:53 AM 80.1 °F 12.9 °F 8% 29.90 in 10.0 mi WSW 24.2 mph 32.2 mph N/A   Clear
12:53 PM 82.0 °F 12.0 °F 7% 29.89 in 10.0 mi WSW 24.2 mph 32.2 mph N/A   Clear
1:53 PM 82.0 °F 12.0 °F 7% 29.87 in 10.0 mi SW 26.5 mph 33.4 mph N/A   Clear
2:53 PM 81.0 °F 12.9 °F 8% 29.87 in 10.0 mi SSW 16.1 mph 31.1 mph N/A   Clear
3:53 PM 81.0 °F 12.9 °F 8% 29.86 in 10.0 mi SW 18.4 mph 26.5 mph N/A   Clear
4:53 PM 79.0 °F 10.9 °F 8% 29.87 in 10.0 mi SW 15.0 mph 23.0 mph N/A   Clear
5:53 PM 77.0 °F 12.0 °F 8% 29.87 in 10.0 mi SSW 12.7 mph 21.9 mph N/A   Clear
6:53 PM 75.0 °F 9.0 °F 8% 29.85 in 10.0 mi SSW 10.4 mph 21.9 mph N/A   Clear
7:53 PM 70.0 °F 10.9 °F 10% 29.85 in 10.0 mi SSW 6.9 mph - N/A   Clear
8:53 PM 64.0 °F 16.0 °F 16% 29.87 in 10.0 mi SSW 4.6 mph - N/A   Clear
9:53 PM 61.0 °F 14.0 °F 16% 29.89 in 10.0 mi SSW 6.9 mph - N/A   Clear
11:53 PM 61.0 °F 18.0 °F 19% 29.89 in 10.0 mi South 8.1 mph - N/A   Clear